map of VDC home
Great Circle Mapper logo
VDC - Airport
Location
City:  Vitoria da Conquista, Bahia, Brazil
Name:Vitoria da Conquista Airport
Old (Alt.):Pedro Otacílio Figueiredo Airport
ICAO / IATA:SBQV / VDC

Details
Type:Airport (Aerodrome, Airfield)
Use:Public/Civil
Latitude:14°51'49"S (-14.863610)
Longitude:40°51'47"W (-40.863055)
Elevation:3002 ft (915 m)
Variation:23.3°W (WMM2010 magnetic declination)
Runways:1
Longest:5823 × 98 ft (1775 × 30 m), paved

Time
Time Zone:UTC-3
Local Time:

Weather
METAR:SBQV 261300Z 06008KT 9999 FEW020 26/17 Q1019

Related Locations
Nearby:
Farthest:ULI: 12094 mi / 19463 km
Falalop Island, Ulithi Atoll, YAP, FM

Find:

   beyond  
but within

Other Information
Maps:
NOTAMs:
Links:
Sources:

  
flag of Brazil
flag of Bahia
  

Sectional Chart

Flight Planning
at skyvector.com

Satellite Image

Google Maps Satellite View

 

Copyright © 2004-2014 Karl L. Swartz. All rights reserved.
The Great Circle Mapper name and logo are trademarks of the Great Circle Mapper.
All other trademarks mentioned herein belong to their respective owners.
Please see credits for attibutions and further copyright information.

  Follow gcmap on Facebook Follow gcmap on Twitter

hCard Microformat

Geo Microformat